User: anonymous   Login
Location: Ostrava
(49.8330°N, 18.2830°E)
Time: 07:00:26
(UTC+02:00)
Language:

Explorer 7 - Orbit

View from above orbital plane
View from above orbital plane
View from above satellite
View from above satellite

Ground track
Ground track

The orbit data is extracted from the following two-line orbital elements,

1 00022U 59009A   16272.06177837  .00000873  00000-0  90371-4 0  9996
2 00022  50.2854 349.8876 0143103 113.6092 247.9954 14.93740583 22164
Epoch (UTC): 28 September 2016 01:28:57
Eccentricity: 0.0143103
inclination: 50.2854°
perigee height: 486 km
apogee height: 686 km
right ascension of ascending node: 349.8876°
argument of perigee: 113.6092°
revolutions per day: 14.93740583
mean anomaly at epoch: 247.9954°
orbit number at epoch: 2216

The dashed part of the orbit path shows where the satellite is in the earth's shadow,  

DLR